Regional Weather Roundup
Issued by NWS Charleston, SC

Current Version | Previous Version | Graphics & Text | Print | Product List | Glossary On
Versions: 1 2 3 4 5 6 7 8 9 10 11 12 13 14 15 16 17 18 19 20 21 22 23 24 25 26 27 28 29 30 31 32 33 34 35 36 37 38 39 40 41 42 43 44 45 46 47 48 49 50
383 ASUS42 KCHS 140913 RWRCHS REGIONAL WEATHER ROUNDUP NATIONAL WEATHER SERVICE CHARLESTON SC 400 AM EST SUN FEB 14 2016 NOTE: "FAIR" INDICATES FEW OR NO CLOUDS BELOW 12,000 FEET WITH NO SIGNIFICANT WEATHER AND/OR OBSTRUCTIONS TO VISIBILITY. NOT ALL STATIONS ARE QUALITY CONTROLLED BY THE NATIONAL WEATHER SERVICE. USE DATA WITH CAUTION...ESPECIALLY DEWPOINT OBSERVATIONS. SCZ027-030-031-034>040-042>050-141000- ...SOUTHEAST SOUTH CAROLINA... CITY SKY/WX TMP DP RH WIND PRES REMARKS N CHARLESTON CLEAR 30 7 37 NE12 30.41R WCI 20 WATERFRONT PRK N/A 34 20 56 NE16 30.22R WCI 24 MOUNT PLEASANT FAIR 32 12 43 N6 30.41R WCI 26 JOHNS ISLAND FAIR 32 12 43 N9 30.40R WCI 24 PINOPOLIS N/A 32 16 51 NE10 30.32F WCI 24 MONCKS CORNER FAIR 27 7 43 NE8 30.42R WCI 18 SUMMERVILLE FAIR 30 14 51 N5 30.43R WCI 25 BEAUFORT MCAS CLEAR 32 15 49 NE13 30.39R WCI 22 BEAUFORT ARPT FAIR 34 21 60 NE18G24 30.38R WCI 23 HILTON HEAD IS CLEAR 37 25 60 N13G18 30.38R WCI 29 WALTERBORO SUNNY 32 16 51 NE6 30.42R WCI 26 ALLENDALE FAIR 32 10 40 CALM 30.39R ...SOUTHERN MIDLANDS AND PEE DEE... CITY SKY/WX TMP DP RH WIND PRES REMARKS GEORGETOWN FAIR 28 7 40 N10 30.43R WCI 19 KINGSTREE FAIR 27 5 39 N3 30.45R ORANGEBURG CLEAR 29 7 39 NE6 30.42R WCI 23 BARNWELL FAIR 32 12 43 NE8 30.40S WCI 25 AIKEN FAIR 27 7 43 NE7 30.42R WCI 19 MANNING FAIR 28 5 37 N3 30.44R COLUMBIA CLEAR 29 2 31 NE8 30.43R WCI 21 SUMTER CLEAR 23 8 52 NE7 30.42R WCI 15 FLORENCE CLEAR 24 4 42 NE8 30.45R WCI 15 MYRTLE BEACH CLEAR 27 3 36 N10 30.45R WCI 17 N MYRTLE BEACH CLEAR 26 7 44 NE12 30.43R WCI 16 $$ GAZ063-065-086>088-099>101-113>116-118-119-134>141-150-141000- ...SOUTHEAST GEORGIA... CITY SKY/WX TMP DP RH WIND PRES REMARKS SAVANNAH ARPT CLEAR 34 22 61 NE10 30.35S WCI 26 HUNTER AAF CLEAR 37 27 66 NE7 30.32R WCI 32 FORT STEWART CLEAR 33 23 68 N2 30.31S STATESBORO CLEAR 37 13 37 NE3 30.37R SYLVANIA SUNNY 33 21 61 E7 30.38R WCI 27 CLAXTON FAIR 33 25 72 N8 30.35R WCI 26 ...CSRA...CENTRAL AND FAR SOUTHEAST GEORGIA... CITY SKY/WX TMP DP RH WIND PRES REMARKS THOMSON CLEAR 31 15 51 NE5 30.44R WCI 27 AUGUSTA-BUSH PTCLDY 28 9 44 E8 30.41R WCI 20 AUGUSTA-DANIEL CLOUDY 30 6 36 E10 30.40R WCI 21 SWAINSBORO FAIR 32 19 59 NE7 30.36S WCI 26 VIDALIA CLEAR 32 21 64 NE6 30.33S WCI 26 EASTMAN FAIR 28 24 82 CALM 30.37S HAZLEHURST FAIR 33 23 67 CALM 30.33R ALMA CLEAR 33 21 61 NW3 30.32F WAYCROSS CLEAR 37 24 58 CALM 30.31F JESUP FAIR 37 27 65 CALM 30.32S BAXLEY FAIR 34 23 64 N3 30.32S BRUNSWICK CLEAR 34 32 93 CALM 30.32S SAINT SIMONS CLEAR 37 32 82 N3 30.31S $$ SCZ027-028-034-036>038-045-046-048>050-GAZ119-141-141000- ...LAKE AND SUPPLEMENTAL COASTAL OBSERVATIONS... STATION/POSITION TIME TEMP WIND PRES WAVE SWELL AIR SEA DIR/SP/G HT/PER HT/PER/DIR (UTC) (F) (DEG/KT/KT) (MB) (FT/S) (FT/S/D) WINYAH BAY NOT AVBL LAKE MURRAY 0800 28 50/ 2/ 5 1029.5R ACE BASIN NERRS NOT AVBL FORT PULASKI 0800 42 51 30/ 13/ 17 1027.2F SAPELO ISLAND 0800 39 CALM 1026.0F $$ ANZ835-935-AMZ111-154-330-350-352-354-370-450-454-472-141000- ...C-MAN AND BUOY OBSERVATIONS... STATION/POSITION TIME TEMP WIND PRES WAVE SWELL AIR SEA DIR/SP/G HT/PER HT/PER/DIR (UTC) (F) (DEG/KT/KT) (MB) (FT/S) (FT/S/D) BUOY 41004 0850 44 65 30/ 16/ 21 1027.5R 4/ 5 2/ 9 BUOY 41008 0850 49 52 60/ 8/ 10 1026.6R 2/ 8 2/ 80/ 8 FOLLY BEACH CMAN 0900 33 20/ 17/ 20 1029.5R CAPERS NEARSHORE 0808 36 30/ 21/ 27 1028.0R FRIPP NEARSHORE 0800 42 40/ 17/ 23 1026.2F STATION/POSITION TIME TEMP WIND PRES WAVE SWELL AIR SEA DIR/SP/G HT/PER HT/PER/DIR (UTC) (F) (DEG/KT/KT) (MB) (FT/S) (FT/S/D) 5E ST. MARYS GA 0821 55 N/A 2/ 6 FRYING PAN BUOY 0800 38 62 10/ 19/ 25 1028.8R BUOY 41025 0850 30 72 360/ 23/ 29 1028.9R 6/ 7 2/ 20/16 CAPE LOOKOUT NC NOT AVBL BUOY 41002 0850 47 67 360/ 16/ 21 N/A 9/ 8 7/360/ 8 BUOY 41010 0820 61 72 1022.8F ST AUGUSTINE FL 0900 52 56 30/ 12/ 14 1025.6F $$

USA.gov is the U.S. government's official web portal to all federal, state and local government web resources and services.